Location: Podia
(1.5569°N, 32.3469°E)
Time: 16:20:51
(UTC+00:00)

SL-24 R/B - Visible Passes

Search period start: 28 September 2020 00:00
Search period end: 08 October 2020 00:00
Orbit: 625 x 1076 km, 98.0° (Epoch: 27 September)

Date Brightness Start Highest point End Pass type
(mag) Time Alt. Az. Time Alt. Az. Time Alt. Az.
28 Sep 6.5 17:13:50 10° SSW 17:17:13 23° WSW 17:20:39 10° NW visible
29 Sep 5.9 17:01:26 10° SSW 17:05:18 33° WSW 17:09:15 10° NW visible
30 Sep 5.1 16:49:13 10° S 16:53:22 49° WSW 16:57:38 10° NNW visible
01 Oct 4.3 16:37:09 10° S 16:41:26 74° WSW 16:45:53 10° NNW visible
02 Oct 4.0 16:25:13 10° SSE 16:29:31 76° ENE 16:34:01 10° N visible
03 Oct 4.3 16:13:24 10° SSE 16:17:36 51° ENE 16:22:01 10° N visible
04 Oct 8.2 03:17:34 10° ENE 03:21:18 16° E 03:24:57 10° SE visible
04 Oct 4.8 16:01:44 10° SE 16:05:42 35° ENE 16:09:52 10° NNE visible
05 Oct 8.6 03:07:39 10° E 03:09:28 11° E 03:11:15 10° ESE visible
05 Oct 7.4 17:32:30 10° SW 17:34:28 13° W 17:36:27 10° WNW visible
06 Oct 6.9 17:19:27 10° SW 17:22:31 19° W 17:25:43 10° NW visible
07 Oct 6.4 17:06:53 10° SSW 17:10:34 27° W 17:14:30 10° NW visible
